Miscellaneous Local Product
Issued by NWS North Platte, NE

Home | Current Version | Previous Version | Text Only | Print | Product List | Glossary On
Versions: 1 2 3 4 5 6 7 8 9 10 11 12 13 14 15 16 17 18 19 20 21 22 23 24 25 26 27 28 29 30 31 32 33 34 35 36 37 38 39 40 41 42 43 44 45 46 47 48 49 50
000
AXUS43 KLBF 220210
MISLBF


WESTERN AND NORTH CENTRAL NEBRASKA HOURLY WEATHER ROUNDUP
NATIONAL WEATHER SERVICE NORTH PLATTE NE
800 PM CST WED FEB 21 2018

NOTE: "FAIR" INDICATES FEW OR NO CLOUDS BELOW 12,000 FEET WITH NO
SIGNIFICANT WEATHER AND/OR OBSTRUCTIONS TO VISIBILITY.

NOTE: STATIONS NOT REPORTING VARIABLES SUCH AS SKY/WEATHER OR
PRESSURE ARE PROVIDED BY RAWS AND APRS NETWORKS AND ARE NOT UNDER
NATIONAL WEATHER SERVICE QUALITY CONTROL.

...OBSERVATIONS IN AND NEAR THE EASTERN PANHANDLE OF NEBRASKA...

CITY           SKY/WX    TMP DP  RH WIND       PRES   REMARKS
PINE RIDGE     FAIR      14   6  70 SW5       30.24R WCI   6
GORDON         FAIR      17   8  67 S6        30.24R WCI   8
CHADRON        FAIR       0  -5  79 CALM      30.24S
ALLIANCE       FAIR      15   9  76 S16       30.21R WCI  -1
SIDNEY         FAIR      13   7  77 SE8       30.22R WCI   2
$$

...OBSERVATIONS IN NORTHERN NEBRASKA AND FAR SOUTHERN SOUTH DAKOTA...

CITY           SKY/WX    TMP DP  RH WIND       PRES   REMARKS
WINNER         FAIR      19   7  59 S16       30.38F WCI   4
VALENTINE      FAIR      14   6  70 S12       30.35S WCI   0
AINSWORTH      FAIR      16   8  72 S8        30.38S WCI   5
O`NEILL        CLOUDY    19  12  74 SE7       30.47R WCI  10
THEDFORD         N/A     11   7  82 CALM      30.37R
BROKEN BOW     CLOUDY    24  11  57 SE8       30.40S WCI  15
ORD            CLOUDY    21  10  62 SE6       30.44F WCI  13
ALBION         CLOUDY    20  12  71 SE5       30.50S WCI  14
$$

...OBSERVATIONS IN SOUTHWEST NEBRASKA AND FAR NORTHEAST COLORADO...

CITY           SKY/WX    TMP DP  RH WIND       PRES   REMARKS
WRAY           CLOUDY    27  12  54 SE13      30.27S WCI  16
HOLYOKE        FAIR      21  12  68 SE9       30.27S WCI  11
IMPERIAL       FAIR      15   7  70 SE7       30.31R WCI   5
OGALLALA       FAIR      17  10  74 E7        30.31F WCI   8
NORTH PLATTE   MOCLDY    19  10  68 E7        30.37R WCI  10
MCCOOK         CLOUDY    27   8  44 E12       30.36F WCI  17
LEXINGTON      CLOUDY    28   9  44 SE9       30.41R WCI  19
GOTHENBURG       N/A     25  10  53 SE3         N/A
CALLAWAY         N/A     20  12  71 SE7         N/A  WCI  11
$$

...OBSERVATIONS IN CENTRAL LINCOLN COUNTY AREA...

CITY           SKY/WX    TMP DP  RH WIND       PRES   REMARKS
N.P. AIRPORT   MOCLDY    19  10  68 E7        30.37R WCI  10
$$

...OBSERVATIONS ACROSS THE ROCKIES AND WESTERN HIGH PLAINS...

CITY           SKY/WX    TMP DP  RH WIND       PRES   REMARKS
RAPID CITY     FAIR       7  -1  70 CALM      30.19F
SCOTTSBLUFF    FAIR      18  10  71 E13       30.21R WCI   5
CHEYENNE       FAIR      14   6  70 SW7       30.09R WCI   4
DENVER         FAIR      13   8  81 W5        30.12R WCI   5
BERTHOUD PASS  CLOUDY     3  -8  60 SE18G24   29.89S HAZE    WCI -17
COPPER MTN     CLOUDY    14   0  52 S10       29.91R WCI   1
MONARCH PASS   FAIR      10   3  72 SW21      30.02F WCI  -9
ASPEN          CLOUDY    19   9  65 CALM      29.97R
LARAMIE        MOCLDY    10   3  73 N7        30.02R WCI  -1
CASPER         FAIR      13   5  70 SW5       30.08R WCI   5
$$

...OBSERVATIONS ACROSS THE NORTHERN PLAINS...

CITY           SKY/WX    TMP DP  RH WIND       PRES   REMARKS
BISMARCK       FAIR       3  -4  72 SE8       30.39S WCI -10
FARGO          FAIR       7   0  73 MISG      30.54S
PIERRE         FAIR      11   5  77 SE17      30.36F WCI  -6
SIOUX FALLS    CLOUDY    15   5  64 SE6       30.56S WCI   6
$$

...OBSERVATIONS ACROSS THE CENTRAL AND SOUTHERN PLAINS...

CITY           SKY/WX    TMP DP  RH WIND       PRES   REMARKS
OMAHA          CLOUDY    24  15  68 NE7       30.57R WCI  16
GRAND ISLAND   CLOUDY    25  11  55 E8        30.47S WCI  16
KANSAS CITY    CLOUDY    27  23  85 E12       30.49F WCI  17
WICHITA        CLOUDY    25  22  88 NE13      30.41F WCI  14
DODGE CITY     CLOUDY    25   3  38 NE9       30.34S WCI  15
OKLAHOMA CITY  FRZ DRZL  24  23  96 N14       30.33F FOG     WCI  12
DALLAS         CLOUDY    37  34  89 NW18      30.28R WCI  27
AMARILLO       CLOUDY    25   4  40 NE8       30.25R WCI  16
$$




USA.gov is the U.S. government's official web portal to all federal, state and local government web resources and services.